Weather History for Rochester, NY

Change the Weather History Date:

Monday, July 29, 2013

  Actual Average Record
Temperature  
Mean Temperature 65 °F 71 °F  
Max Temperature 73 °F 81 °F 94 °F (1940)
Min Temperature 57 °F 61 °F 49 °F (1968)
Degree Days  
Heating Degree Days 0 0  
Month to date heating degree days 8 6  
Since 1 June heating degree days 66 74  
Since 1 July heating degree days 8 6  
Cooling Degree Days 0 6  
Month to date cooling degree days 256 174  
Year to date cooling degree days 434 310  
Since 1 June cooling degree days 363 280  
Growing Degree Days 15 (Base 50)    
Moisture  
Dew Point 54 °F    
Average Humidity 67    
Maximum Humidity 86    
Minimum Humidity 47    
Precipitation  
Precipitation T in 0.11 in 1.25 in (1970)
Month to date precipitation 4.41 3.11  
Year to date precipitation 22.51 18.91  
Snow  
Snow 0.00 in 0.00 in 0.00 in ()
Month to date snowfall 0.0 0.0  
Since 1 June snowfall 0.0 0.0  
Since 1 July snowfall 0.0 0.0  
Snow Depth 0.00 in    
Sea Level Pressure  
Sea Level Pressure 30.06 in    
Wind  
Wind Speed 8 mph (WSW)    
Max Wind Speed 17 mph    
Max Gust Speed 22 mph    
Visibility 10 miles    
Events Rain    
T = Trace of Precipitation, MM = Missing Value Source: NWS Daily Summary

Daily Weather History Graph

Daily Weather History Graph

Search for Another Location

Airport:

Trip Planner

Search our weather history database for the weather conditions in past years. The results will help you decide how hot, cold, wet, or windy it might be!

Date:

Astronomy

Jul. 29, 2013 Rise Set
Actual Time 5:58 AM EDT 8:35 PM EDT
Civil Twilight 5:25 AM EDT 9:07 PM EDT
Nautical Twilight 4:44 AM EDT 9:48 PM EDT
Astronomical Twilight 3:58 AM EDT 10:34 PM EDT
Moon No Moon Rise 1:52 PM EDT (7/29)
Length of Visible Light 15h 42m
Length of Day
14h 36m
Waning Gibbous, 51% of the Moon is Illuminated
Jul 29
Waning Gibbous
Jul 29
Last Quarter
Aug 6
New
Aug 14
First Quarter
Aug 20
Full

Hourly Weather History & Observations

Time (EDT) Temp. Dew Point Humidity Pressure Visibility Wind Dir Wind Speed Gust Speed Precip Events Conditions
12:54 AM 59.0 °F 54.0 °F 83% 30.01 in 10.0 mi WSW 4.6 mph - N/A   Partly Cloudy
1:54 AM 57.9 °F 54.0 °F 87% 30.00 in 10.0 mi SW 3.5 mph - N/A   Partly Cloudy
2:54 AM 57.0 °F 54.0 °F 89% 30.00 in 10.0 mi SSW 3.5 mph - N/A   Partly Cloudy
3:54 AM 57.0 °F 54.0 °F 89% 30.01 in 10.0 mi South 4.6 mph - N/A   Mostly Cloudy
4:54 AM 57.9 °F 54.0 °F 87% 30.01 in 10.0 mi SSW 3.5 mph - N/A   Overcast
5:54 AM 57.9 °F 54.0 °F 87% 30.02 in 10.0 mi SW 5.8 mph - N/A   Mostly Cloudy
6:54 AM 59.0 °F 54.0 °F 83% 30.03 in 10.0 mi SW 6.9 mph - N/A   Mostly Cloudy
7:54 AM 59.0 °F 54.0 °F 83% 30.03 in 10.0 mi SW 6.9 mph - N/A   Mostly Cloudy
8:54 AM 64.0 °F 55.9 °F 75% 30.04 in 10.0 mi West 6.9 mph - N/A   Mostly Cloudy
9:54 AM 66.9 °F 55.0 °F 66% 30.05 in 10.0 mi West 9.2 mph - N/A   Scattered Clouds
10:54 AM 69.1 °F 52.0 °F 54% 30.05 in 10.0 mi West 10.4 mph - N/A   Mostly Cloudy
11:54 AM 71.1 °F 50.0 °F 47% 30.06 in 10.0 mi WNW 10.4 mph 20.7 mph N/A   Mostly Cloudy
12:54 PM 69.1 °F 52.0 °F 54% 30.07 in 10.0 mi West 15.0 mph 20.7 mph N/A   Overcast
1:54 PM 70.0 °F 54.0 °F 57% 30.07 in 10.0 mi WSW 10.4 mph - N/A   Overcast
2:54 PM 72.0 °F 53.1 °F 51% 30.08 in 10.0 mi WSW 8.1 mph - N/A   Overcast
3:54 PM 66.9 °F 55.0 °F 66% 30.09 in 10.0 mi West 13.8 mph 20.7 mph 0.00 in Rain Light Rain
4:54 PM 68.0 °F 57.0 °F 68% 30.09 in 10.0 mi SW 8.1 mph - 0.00 in   Mostly Cloudy
5:54 PM 69.1 °F 54.0 °F 58% 30.08 in 10.0 mi West 17.3 mph - N/A   Mostly Cloudy
6:54 PM 69.1 °F 55.0 °F 61% 30.09 in 10.0 mi WSW 12.7 mph - N/A   Mostly Cloudy
7:54 PM 69.1 °F 55.0 °F 61% 30.09 in 10.0 mi West 12.7 mph - N/A   Mostly Cloudy
8:54 PM 66.9 °F 55.0 °F 66% 30.11 in 10.0 mi WSW 8.1 mph - N/A   Mostly Cloudy
9:54 PM 64.0 °F 55.0 °F 73% 30.13 in 10.0 mi SW 5.8 mph - N/A   Mostly Cloudy
10:54 PM 63.0 °F 57.0 °F 81% 30.14 in 10.0 mi SW 6.9 mph - N/A   Mostly Cloudy
11:54 PM 63.0 °F 55.9 °F 78% 30.15 in 10.0 mi SW 4.6 mph - N/A   Mostly Cloudy